Location: T�bingen+AIT
(48.5342°N, 9.0700°E)
Time: 22:32:48
(UTC+01:00)

Meteor 1-15 Rocket - Pass Details

Date: 14 September 2017
Orbit: 839 x 908 km, 81.2° (Epoch: 18 November)

Event Time Altitude Azimuth Distance (km) Brightness Sun altitude
Rises 21:03:18 0° 193° (SSW) 3,522 7.3 -14.5°
Reaches altitude 10° 21:05:46 10° 195° (SSW) 2,584 6.6 -14.8°
Maximum altitude 21:11:41 79° 282° (WNW) 926 4.5 -15.7°
Drops below altitude 10° 21:17:35 10° 10° (N) 2,578 6.9 -16.6°
Sets 21:20:03 0° 11° (NNE) 3,514 7.6 -17.0°
